Wind_Speed
9 9 10 10 10 10 10 10 10 10 11 11 12 11 11 10 6 3 7 6 4 6 8 9 9 9 10 9 8 8 9 10 10
9 9 10 11 11 10 10 11 11 11 12 12 13 13 12 10 8 5 5 8 7 8 8 8 9 9 9 9 8 9 10 8 10
9 10 11 11 12 12 13 13 13 13 13 13 15 16 14 12 9 5 7 9 7 7 8 8 8 8 8 9 9 9 9 10 10
11 12 13 13 14 14 15 15 15 15 14 15 15 16 14 13 12 11 10 9 8 10 9 8 8 7 8 8 8 9 10 9 11
11 12 13 13 15 14 16 15 15 16 16 16 15 15 13 14 13 10 10 10 10 12 10 9 8 7 7 8 9 10 10 10 11
10 11 11 14 13 14 15 15 15 16 16 16 16 14 15 14 12 11 9 10 12 10 9 8 8 8 8 8 8 9 10 10 10
7 8 10 12 11 13 14 13 13 14 15 15 15 15 14 14 10 11 11 12 13 9 8 8 8 7 7 7 8 8 9 8 7
6 7 9 9 11 11 12 12 14 14 14 15 15 15 15 11 8 9 10 13 12 9 9 8 7 7 6 7 8 9 10 9 9
4 6 7 9 11 12 13 13 14 13 14 14 13 13 13 11 9 8 9 11 12 10 9 9 8 8 7 7 8 9 10 11 11
4 5 5 7 10 12 12 13 14 13 13 12 14 12 12 11 10 8 9 8 10 10 10 9 10 9 10 11 12 13 12 12 12
3 4 5 6 10 10 11 12 13 12 12 12 11 12 10 12 7 9 8 8 9 10 11 9 9 10 10 12 12 10 10 10 12
3 3 4 6 11 9 11 11 12 12 12 11 8 10 10 10 10 9 9 8 9 10 11 11 11 10 9 12 11 9 6 9 12
2 2 4 6 9 9 10 13 13 13 13 14 7 7 6 8 9 10 10 10 10 10 11 11 10 11 13 11 13 12 11 9 7
3 2 3 5 7 7 9 11 12 13 14 15 5 4 6 4 6 8 8 9 9 9 9 10 8 10 12 12 11 14 14 7 4
2 2 2 5 5 7 9 10 11 11 15 12 6 3 2 4 5 5 6 8 8 9 9 8 8 9 10 13 13 14 10 7 4
1 1 1 3 4 6 8 10 11 10 17 11 9 6 2 2 2 4 4 6 7 8 9 8 7 8 7 11 10 12 15 10 8
0 0 0 2 3 3 7 8 8 7 13 8 3 4 2 3 5 3 4 7 7 9 11 7 6 6 4 8 10 8 11 13 13
1 0 1 2 2 2 4 6 7 7 7 9 5 3 2 6 1 4 4 7 7 9 12 9 5 5 4 7 8 8 9 12 11
2 1 1 2 2 2 2 4 4 5 6 4 7 3 3 1 4 4 1 13 6 8 10 9 3 4 4 6 8 8 9 10 11
2 2 1 1 2 3 3 4 3 3 2 3 4 4 6 4 2 3 6 20 10 5 10 9 3 4 6 7 9 10 9 10 10
Wind_Direction
53 47 38 33 25 20 15 11 5 1 356 353 349 344 348 346 346 353 11 341 333 322 318 313 312 308 319 278 267 278 273 256 244
35 30 26 18 11 11 8 4 0 356 353 350 347 346 345 342 340 320 337 314 312 338 336 328 319 312 312 318 323 281 271 256 245
30 26 22 16 12 7 5 3 360 358 358 3 6 0 354 357 5 0 342 329 339 343 338 333 326 322 315 312 314 310 306 270 251
29 25 17 16 14 12 13 13 12 14 9 2 6 13 19 11 4 356 339 331 342 334 330 330 327 322 321 318 312 317 305 301 274
18 16 18 22 22 22 16 18 15 11 6 4 6 5 4 359 357 351 338 331 340 333 331 328 329 323 320 319 322 315 306 297 283
17 24 18 14 20 15 10 9 357 1 2 3 357 357 357 354 358 351 339 342 341 334 333 331 332 328 327 328 332 328 319 310 281
5 8 12 10 10 8 5 1 357 357 357 359 357 356 352 346 350 3 353 352 349 347 345 340 337 337 328 333 334 338 339 331 287
10 31 11 0 353 356 355 359 358 358 3 360 356 355 355 359 349 3 355 358 3 -0 358 355 352 347 331 330 324 320 325 322 303
21 353 356 346 347 351 358 358 357 359 1 358 360 3 1 9 6 7 13 9 16 19 20 19 15 8 358 332 334 325 316 312 309
339 345 356 348 341 348 356 356 354 354 360 359 3 8 11 12 14 26 13 13 28 29 22 18 17 3 355 343 319 308 304 309 305
335 342 341 337 340 348 352 351 352 355 355 357 15 21 16 17 23 27 33 39 31 36 26 21 18 12 5 351 344 320 299 290 283
353 352 349 342 340 347 351 354 353 357 1 8 22 19 23 26 42 53 22 29 41 37 33 37 31 20 7 7 8 4 336 273 289
354 3 352 340 343 353 354 352 352 358 357 358 12 15 6 34 41 35 25 35 41 37 30 26 26 23 16 359 2 5 343 313 289
13 4 347 329 338 349 350 350 353 353 351 349 347 5 359 22 38 40 28 28 25 20 23 30 21 15 15 12 2 2 355 355 311
2 32 346 328 343 348 356 354 359 357 350 351 344 293 355 26 34 29 39 20 17 12 9 8 25 1 7 3 17 16 6 17 332
60 74 345 325 335 356 354 353 8 20 6 5 5 32 206 317 327 342 341 4 10 355 350 349 353 2 358 356 12 28 31 26 21
20 92 193 296 330 342 355 0 10 20 21 5 11 9 350 304 251 301 353 349 346 349 354 351 348 341 356 348 355 357 16 20 27
266 216 182 244 310 358 2 356 8 17 18 25 40 16 332 330 335 277 303 337 330 350 358 350 349 331 328 334 342 342 355 15 7
290 290 246 239 256 291 330 333 4 9 17 46 19 355 297 4 332 316 342 357 327 325 346 351 1 322 302 326 330 336 331 357 357
267 266 250 236 251 278 300 309 321 336 345 353 354 355 321 264 229 288 312 328 333 338 321 338 320 298 305 316 314 321 323 333 339
Height
830 829 829 828 827 826 825 824 823 822 820 818 817 815 814 814 814 814 814 813 813 812 812 812 812 812 812 811 812 812 811 811 812
830 829 828 828 827 825 824 823 822 820 819 817 816 814 813 812 812 813 813 812 812 812 812 811 811 811 811 810 810 810 810 810 810
830 830 829 828 826 825 824 823 821 820 819 817 816 814 813 812 811 811 811 812 812 812 811 810 810 810 809 809 809 808 807 807 808
830 830 829 828 827 825 824 822 821 819 819 817 816 815 814 813 812 812 811 811 811 810 809 810 809 808 808 808 807 807 806 805 805
830 830 830 828 826 825 824 822 821 820 818 817 816 815 814 813 812 811 811 811 810 809 808 808 808 807 807 806 806 805 804 803 803
831 830 830 828 827 825 824 822 821 819 818 817 816 814 814 813 811 811 810 810 809 808 807 807 806 806 806 805 804 803 803 802 801
831 830 830 829 827 826 824 823 821 819 818 816 816 814 813 812 811 810 810 809 808 807 806 806 805 805 805 804 803 802 801 800 800
831 830 829 829 828 826 824 822 820 819 817 816 815 814 812 811 810 809 809 808 807 807 806 805 804 804 804 803 802 801 800 799 799
831 830 829 828 827 826 824 822 821 819 817 816 815 813 812 811 810 809 808 808 807 807 806 805 804 804 803 802 800 800 799 798 797
830 829 828 828 827 825 823 822 820 818 816 815 814 813 812 811 810 809 808 808 807 806 805 805 804 803 802 801 799 798 797 796 795
828 828 828 827 826 824 823 821 820 818 816 815 813 812 812 811 810 809 808 808 808 807 806 805 804 802 802 800 798 795 795 794 792
828 827 827 826 825 824 823 822 820 818 816 814 813 813 812 811 811 810 809 809 809 808 806 805 804 802 801 799 797 794 793 791 790
827 827 827 826 826 825 823 822 820 818 816 814 813 813 813 812 811 810 810 810 809 808 807 805 804 803 801 799 797 795 793 789 788
826 826 827 826 826 825 823 822 820 818 816 814 813 813 813 812 812 811 811 811 810 808 807 805 804 803 801 800 798 794 791 788 788
825 826 827 827 826 825 824 823 821 819 817 813 812 812 813 813 813 812 812 811 810 809 807 806 805 803 802 800 798 795 792 790 790
825 825 826 827 827 826 825 823 821 820 817 814 812 812 813 813 813 813 812 811 810 809 807 806 805 804 802 800 798 797 795 793 791
825 824 825 826 826 825 825 824 822 821 820 819 817 817 815 813 813 813 812 811 810 809 807 805 804 803 802 801 800 797 796 794 793
824 824 824 825 825 824 824 825 823 821 821 820 821 821 823 818 813 813 813 812 810 809 807 805 804 803 803 801 800 798 796 795 793
824 823 823 824 824 823 824 824 823 822 821 821 822 822 822 822 820 813 812 811 810 808 807 805 804 803 802 801 800 799 797 795 794
822 822 822 823 823 824 823 823 823 821 821 821 821 821 821 821 821 819 813 809 808 807 805 804 803 802 802 801 800 799 797 795 794